Weather Roundup
Issued by NWS

Home | Current Version | Previous Version | Text Only | Print | Product List | Glossary On
Versions: 1 2 3 4 5 6 7 8 9 10 11 12 13 14 15 16 17 18 19 20 21 22 23 24 25 26 27 28 29 30 31 32 33 34 35 36 37 38 39 40 41 42 43 44 45 46 47 48 49 50
000
NZUS93 KARX 160859
HRRWXR

CURRENT HOURLY OBSERVATIONS ACROSS
MUCH OF THE UPPER MISSISSIPPI VALLEY
NATIONAL WEATHER SERVICE LA CROSSE WI
300 AM CST MON JAN 16 2017


...SOUTHEAST MINNESOTA...


CITY           SKY/WX    TMP DP  RH WIND       PRES   REMARKS
ROCHESTER      CLOUDY    21  17  84 S9        30.19F WCI  11
ROCHESTER/MAYO FAIR      23  17  78 SE7       30.20S WCI  15
WINONA         CLOUDY    12  10  92 CALM      30.26S
AUSTIN         CLOUDY    25  18  74 SE6       30.19S WCI  18
ALBERT LEA     CLOUDY    25  18  74 S9        30.18F WCI  15
DODGE CENTER   CLOUDY    18  14  86 CALM      30.17F
PRESTON        CLOUDY    21  17  84 S5        30.21S WCI  15
OWATONNA       CLOUDY    23  16  74 SE7       30.18S WCI  15
FARIBAULT      CLOUDY    19  16  86 S3        30.19S
$$

...ELSEWHERE IN MINNESOTA...


CITY           SKY/WX    TMP DP  RH WIND       PRES   REMARKS
MINNEAPOLIS    CLOUDY    17  13  84 SE5       30.20S WCI  10
INTNL FALLS    CLOUDY    10   6  84 S3        30.04R
DULUTH         CLOUDY    16  14  92 W9        30.10S FOG     WCI   4
RED WING       CLOUDY    14  10  85 CALM      30.22S FOG
REDWOOD FALLS  CLOUDY    18  14  84 S6        30.16S WCI  10
MANKATO        CLOUDY    19  16  88 SE6       30.19S WCI  11
WORTHINGTON    CLOUDY    25  21  85 S7          N/A  WCI  17
FAIRMONT       FLURRIES  26  22  84 SE7       30.17S WCI  18
$$

...SOUTHWEST WISCONSIN...


CITY           SKY/WX    TMP DP  RH WIND       PRES   REMARKS
PRAIRIE DU CHI CLOUDY    24  18  78 CALM      30.27S
BOSCOBEL       CLOUDY    24  19  81 CALM      30.27F
LONE ROCK      NOT AVBL
PLATTEVILLE    CLOUDY    29  21  73 SE6       30.25S WCI  23
FORT MC COY    CLOUDY     9   8  93 CALM      30.26S
MAUSTON-NEW LI CLOUDY    16  13  90 CALM      30.23F
VIROQUA        PTSUNNY   26  18  72 CALM      30.22R
WIS DELLS      CLOUDY    20  15  84 CALM      30.24F
$$

...ELSEWHERE IN WISCONSIN...


CITY           SKY/WX    TMP DP  RH WIND       PRES   REMARKS
MILWAUKEE      CLOUDY    24  18  77 CALM      30.27F
MADISON        CLOUDY    23  19  85 CALM      30.26S
GREEN BAY      CLOUDY    17  13  84 SW8       30.26S WCI   7
EAU CLAIRE     NOT AVBL
BLACK RVR FLS  FAIR       3  -1  81 CALM      30.24S
MEDFORD        CLOUDY    13   9  85 CALM      30.18F
WAUSAU         CLOUDY     3   0  87 CALM      30.21S
WIS RAPIDS     CLOUDY     8   5  87 CALM      30.24F
MARSHFIELD     CLOUDY    14  10  84 SW5       30.20S WCI   6
RICE LAKE      CLOUDY     1  -3  83 CALM      30.22S
$$

...NORTHEAST IOWA...


CITY           SKY/WX    TMP DP  RH WIND       PRES   REMARKS
WATERLOO       FRZ RAIN  30  26  85 SE7       30.22S FOG     WCI  23
DUBUQUE        FRZ RAIN  29  25  85 SE6       30.24S FOG     WCI  23
DECORAH        MIX PCPN  25  19  80 SE7       30.21F WCI  17
MASON CITY     FRZ RAIN  27  23  85 SE8       30.19F WCI  19
CHARLES CITY   CLOUDY    28  25  86 SE9       30.21S WCI  20
OELWEIN        CLOUDY    28  27  93 SE12      30.22F FOG     WCI  18
$$

...ELSEWHERE IN IOWA...


CITY           SKY/WX    TMP DP  RH WIND       PRES   REMARKS
DES MOINES     FRZ RAIN  31  29  92 E8        30.16F FOG     WCI  23
IOWA CITY      FRZ RAIN  32  29  88 E5        30.25S FOG     WCI  27
FORT DODGE     CLOUDY    30  27  86 E7        30.17F WCI  23
MARSHALLTOWN   FRZ RAIN  30  28  92 SE10      30.19S FOG     WCI  21
CEDAR RAPIDS   FRZ RAIN  29  27  92 E9        30.22R FOG     WCI  20
$$

...NORTHERN ILLINOIS...


CITY           SKY/WX    TMP DP  RH WIND       PRES   REMARKS
CHICAGO-OHARE  LGTSLEET  32  27  81 CALM      30.27S
CHICAGO-MIDWAY DRIZZLE   34  26  72 SE5       30.28S WCI  30
MOLINE         CLOUDY    33  27  78 E7        30.23F HAZE    WCI  27
ROCKFORD       FRZ RAIN  31  27  85 S3        30.29R FOG
PEORIA         CLOUDY    34  32  92 E6        30.23F FOG     WCI  29
$$

NOTE: "FAIR" INDICATES FEW OR NO CLOUDS BELOW 12,000 FEET WITH NO
SIGNIFICANT WEATHER AND/OR OBSTRUCTIONS TO VISIBILITY. WIND
SPEEDS ARE IN MILES-PER-HOUR.




USA.gov is the U.S. government's official web portal to all federal, state and local government web resources and services.